CAPE
4 2 2 0 3 0 0 0 0 0 0 0 0 0 0 0 0 0 0 0 18 99 0 6 0 0 0 5 22 8 0 5 5 37 94 51 53 32 43 45 41 21 8 14 11 4 2 10 1 4 10 19 35 24
6 7 0 0 0 0 0 0 0 0 0 0 0 0 0 0 0 0 0 0 0 117 19 0 0 0 7 5 6 54 32 29 69 17 55 40 53 56 17 30 27 20 17 7 21 22 22 3 4 1 2 18 21 22
4 11 0 0 0 0 0 0 0 0 0 0 0 0 0 0 0 0 0 0 11 88 13 0 0 0 0 3 0 25 44 24 51 12 57 75 72 27 26 19 9 52 6 19 13 18 21 6 24 9 5 6 22 16
7 7 4 0 0 0 0 0 0 0 0 0 0 0 0 0 0 0 0 0 0 19 120 1 0 0 0 2 1 21 24 138 104 53 105 75 51 44 53 36 42 47 10 13 7 2 18 21 17 20 22 13 15 15
3 7 4 4 0 0 0 0 0 0 0 0 0 0 0 0 0 0 1 0 0 4 53 25 0 0 0 5 2 18 142 108 61 122 70 34 42 53 39 10 50 44 37 31 58 19 17 47 17 9 26 16 14 2
5 4 0 6 0 0 0 0 0 0 0 0 0 0 0 0 0 4 2 0 0 0 15 68 0 0 1 0 16 20 98 34 126 186 60 12 43 36 54 42 29 12 15 27 42 18 18 18 22 8 15 16 3 9
4 3 0 7 5 0 0 0 0 0 0 0 0 0 0 0 0 6 2 0 0 0 15 29 1 0 0 0 6 51 56 74 79 117 105 37 31 43 80 47 16 16 14 10 9 5 15 10 17 18 19 19 14 5
4 0 0 5 8 4 1 0 0 0 0 0 0 0 0 0 0 15 0 0 0 10 11 3 0 3 0 0 27 3 52 41 150 89 84 46 11 12 34 2 5 11 9 10 12 8 16 7 0 0 1 9 4 0
3 0 0 0 8 9 11 0 0 0 0 0 0 0 2 2 0 1 0 0 0 0 22 0 0 2 0 1 0 23 28 142 2 100 24 1 1 3 2 0 0 1 8 18 13 9 7 5 2 3 2 10 4 2
0 0 0 0 6 11 14 2 0 0 0 0 3 3 3 4 0 0 0 2 3 1 3 4 0 0 0 9 11 10 24 24 52 0 22 90 0 0 0 0 0 0 1 1 9 7 8 6 4 3 4 15 15 7
0 0 0 0 7 12 19 3 0 0 0 6 1 3 5 0 2 1 0 2 0 0 0 0 0 0 0 1 0 0 6 1 13 3 4 11 20 3 0 0 0 0 0 4 3 5 3 3 4 3 7 15 6 15
5 0 2 3 10 20 24 3 0 3 6 0 6 2 3 8 2 0 0 0 0 0 0 0 0 0 0 0 1 0 0 0 2 0 1 1 47 0 0 0 0 0 0 0 2 6 2 2 3 1 1 0 0 2
2 0 6 5 11 28 27 0 0 1 0 7 3 2 1 2 0 0 0 0 0 0 0 0 0 0 0 0 0 0 0 0 0 6 0 9 23 0 0 0 0 0 0 1 0 0 1 2 2 0 0 0 0 0
0 3 6 7 13 32 28 5 0 0 0 13 0 0 0 0 0 0 0 0 0 0 0 0 0 0 0 0 0 0 0 0 0 0 0 78 4 0 0 0 0 0 0 0 1 2 7 7 2 16 116 61 0 64
4 6 9 14 18 41 33 3 0 0 19 5 0 0 0 0 0 0 0 0 0 0 0 0 0 0 0 0 0 0 0 0 0 0 0 0 0 0 0 0 0 0 0 0 0 3 12 25 29 19 43 75 39 0
13 35 29 7 24 51 29 0 3 16 19 5 3 0 0 0 9 0 0 0 0 0 0 0 0 0 0 0 0 0 0 0 0 0 1 0 0 0 0 0 0 0 0 0 1 1 4 11 15 11 14 16 0 0
31 20 7 9 26 46 1 9 22 17 13 7 1 0 0 4 6 0 0 0 0 0 0 0 0 0 0 0 0 0 0 0 7 0 0 0 0 0 0 0 0 0 0 0 0 1 2 2 4 11 19 30 8 8
25 20 0 13 47 6 1 8 30 36 25 4 8 6 6 1 5 3 0 0 0 0 0 0 0 0 0 0 0 0 8 12 11 0 0 0 0 0 0 0 0 0 0 0 0 1 1 2 7 18 20 23 13 0
18 14 3 21 0 2 2 6 15 32 8 3 10 1 9 11 4 1 0 0 0 0 0 0 1 0 0 0 0 0 0 14 12 10 0 0 0 0 0 0 0 0 0 0 2 1 1 1 3 6 6 3 2 1
48 32 30 0 3 4 15 24 27 20 14 24 8 5 6 13 9 10 3 3 0 1 3 1 0 0 0 0 0 0 0 0 4 16 4 0 0 0 0 1 0 0 2 1 0 0 0 0 0 1 1 0 0 0
70 64 6 0 1 7 29 40 15 12 6 18 24 19 6 19 40 45 53 40 19 6 0 0 0 0 0 0 0 0 0 0 0 0 0 2 2 0 0 0 1 2 2 5 13 2 0 0 6 19 8 9 2 0
27 1 0 0 0 1 8 15 34 33 30 25 37 57 16 38 38 43 60 57 33 7 2 2 0 0 0 0 0 0 0 0 0 0 0 0 0 0 0 0 0 0 0 25 45 21 5 0 9 16 17 8 0 0
0 0 1 0 6 9 13 34 56 46 43 23 34 27 24 18 29 12 37 27 19 6 2 0 0 0 0 0 0 0 0 0 0 0 0 0 0 0 0 9 48 22 11 11 27 16 17 0 0 12 1 1 1 4
0 0 3 6 19 37 36 75 42 18 19 25 28 16 15 33 17 33 15 11 12 3 0 0 0 0 0 0 0 0 0 0 0 0 0 0 0 0 0 0 0 3 14 18 12 10 1 0 0 0 1 1 4 7
2 4 3 15 23 49 32 41 48 48 37 18 12 20 36 45 29 13 0 0 0 0 0 0 0 0 0 0 0 0 0 0 0 0 0 0 0 0 0 0 0 5 12 15 2 0 0 0 0 0 1 1 2 4
6 6 9 27 47 33 27 30 36 29 23 40 6 15 33 20 19 11 0 0 0 0 0 0 0 0 0 0 0 0 0 0 0 0 0 0 0 0 0 0 0 8 1 0 0 0 0 0 0 0 1 0 1 4
15 18 4 3 29 11 25 34 16 20 37 40 11 12 23 31 27 15 0 0 0 0 0 0 0 0 0 0 0 0 0 0 0 0 0 0 0 0 0 0 0 3 0 0 0 0 0 0 1 2 2 2 3 5
4 12 1 1 27 25 14 23 13 31 30 26 29 17 17 4 1 0 0 0 0 0 0 0 0 0 0 0 0 0 0 0 0 0 0 0 0 0 0 0 3 0 0 0 0 0 0 0 0 2 3 4 7 4
4 8 37 8 15 45 22 21 20 12 14 9 0 0 0 0 6 0 0 0 0 0 0 0 0 0 0 0 0 0 0 0 0 0 0 0 1 0 0 0 0 0 0 0 0 0 0 0 0 0 0 1 3 7
0 25 15 22 10 17 18 23 24 18 8 2 2 1 0 2 0 0 0 0 0 0 0 0 0 0 0 0 0 0 0 0 0 0 0 0 0 0 0 0 0 0 0 0 0 0 0 0 0 0 0 2 9 2
4 31 32 29 20 3 59 8 15 29 15 19 3 2 0 0 0 0 0 0 0 0 0 0 0 0 0 0 1 1 0 0 0 0 0 0 0 0 0 0 0 0 0 0 0 1 0 2 0 0 5 4 2 0
28 30 14 24 19 2 2 0 0 2 0 0 0 0 3 0 2 0 0 0 0 0 0 0 0 0 0 0 0 0 0 0 0 0 0 0 0 0 0 0 0 0 0 0 0 1 0 0 1 2 3 0 1 1
24 33 35 42 6 8 6 4 19 22 16 11 8 6 2 0 0 0 0 0 0 0 0 0 0 0 0 0 0 0 0 0 0 0 0 0 0 0 0 0 0 0 0 0 0 0 0 1 2 2 1 2 1 0
CIN
0 0 0 0 0 0 0 0 0 0 0 0 0 0 0 0 0 0 0 0 0 0 0 0 0 0 0 0 0 -1 0 0 0 0 0 0 0 -3 0 0 0 0 0 0 0 -1 0 0 0 0 0 0 0 0
0 0 0 0 0 0 0 0 0 0 0 0 0 0 0 0 0 0 0 0 0 0 0 0 0 0 0 0 0 -1 0 0 0 0 0 0 0 0 0 0 0 0 0 0 0 0 0 0 0 0 0 0 0 0
0 0 0 0 0 0 0 0 0 0 0 0 0 0 0 0 0 0 0 0 -1 0 -3 0 0 0 0 -1 0 0 0 0 0 -7 0 0 0 0 0 0 0 0 0 0 0 0 0 0 0 0 0 0 0 0
0 0 0 0 0 0 0 0 0 0 0 0 0 0 0 0 0 0 0 0 0 -1 0 -1 0 0 0 -1 0 0 -12 0 -1 0 0 0 0 0 0 0 0 0 0 0 0 0 0 0 0 0 0 0 0 0
0 0 0 0 0 0 0 0 0 0 0 0 0 0 0 0 0 0 0 0 0 0 0 -2 0 0 0 0 -1 -1 0 0 0 -2 -1 0 0 0 0 0 0 0 0 0 0 0 0 0 0 0 0 0 0 0
0 0 0 0 0 0 0 0 0 0 0 0 0 0 0 0 0 0 0 0 0 0 -1 0 0 0 -1 0 0 0 0 -1 0 -1 0 0 0 0 0 0 0 0 0 0 0 0 0 0 0 -2 0 0 0 0
0 0 0 0 0 0 0 0 0 0 0 0 0 0 0 0 0 -1 0 0 0 0 0 -3 0 0 0 0 -1 0 -1 0 0 0 -1 0 0 -1 0 0 -1 -2 -1 -2 -6 -1 -1 -1 0 0 0 0 0 -1
0 0 0 0 0 0 0 0 0 0 0 0 0 0 0 0 0 0 0 0 0 0 0 -2 0 -2 0 0 -6 0 0 -1 0 0 0 0 0 -1 0 -1 0 -1 0 0 -1 -1 0 0 -1 0 0 0 0 0
0 0 0 0 0 0 0 0 0 0 0 0 0 0 0 0 0 0 0 0 0 0 0 0 0 -1 0 0 0 -3 -3 0 -1 0 -1 0 0 0 -1 -1 0 -1 0 0 0 0 -1 0 0 -1 -1 -1 0 0
0 0 0 0 -1 -1 0 0 0 0 0 0 0 0 0 0 0 0 0 0 0 0 0 0 0 0 0 -4 0 -1 0 -2 -1 0 -2 -1 0 0 0 0 0 -1 0 0 0 -1 0 0 0 0 0 -1 -1 -1
0 0 0 0 -1 0 0 0 0 0 0 -2 0 0 0 0 0 0 0 0 0 0 0 0 0 0 0 0 0 0 -4 -2 -3 -1 -3 -1 -4 -42 0 0 0 0 0 0 0 -1 -1 0 0 0 0 -1 0 -1
0 0 -1 -2 -1 0 0 0 0 0 -1 0 0 0 0 0 0 0 0 0 0 0 0 0 0 0 0 0 0 0 0 0 -1 0 0 0 -6 0 0 0 0 0 0 0 0 0 0 0 0 0 -1 0 0 0
0 0 0 -1 -1 0 0 0 0 0 0 -2 0 0 0 0 0 0 0 0 0 0 0 0 0 0 0 0 0 0 0 0 0 -1 0 -1 -13 0 0 0 0 0 0 0 -1 0 0 0 0 0 0 0 0 0
0 0 0 -1 -1 0 0 -1 0 0 0 0 0 0 0 0 0 0 0 0 0 0 0 0 0 0 0 0 0 0 0 0 0 0 0 -1 -6 0 0 0 0 0 0 0 0 0 0 0 -1 -1 -5 -8 0 -10
0 0 0 -1 0 0 0 -1 0 0 0 0 0 0 0 0 0 0 0 0 0 0 0 0 0 0 0 0 0 0 0 0 0 0 0 0 0 0 0 0 0 0 0 -1 0 0 -1 -1 -2 -1 -3 -7 -13 0
0 0 0 -3 0 0 0 0 0 0 0 0 0 0 0 0 0 0 0 0 0 0 0 0 0 0 0 0 0 0 0 0 0 0 -2 0 0 0 0 0 0 0 0 0 -1 0 0 0 -2 0 0 -18 0 0
0 0 -5 -6 0 0 0 0 0 0 0 0 0 0 0 0 0 0 0 0 0 0 0 0 0 0 0 0 0 0 0 0 -2 0 0 0 0 0 0 0 0 0 0 0 0 0 -1 0 0 0 0 -22 -22 -6
-2 -3 0 -3 0 0 0 0 0 0 0 0 0 0 0 0 0 0 0 0 0 0 0 0 0 0 0 0 0 0 -3 -5 -3 0 0 0 0 0 0 0 0 0 0 0 0 0 0 -1 0 0 0 0 0 -2
-16 -4 -12 -7 0 0 0 0 0 0 0 0 0 0 0 0 0 0 0 0 0 0 0 0 0 0 0 0 0 0 0 -4 -1 -1 0 0 0 0 0 0 0 0 0 0 -1 0 0 -1 0 0 -3 -2 0 -13
-8 -14 -3 -1 -2 0 0 0 0 0 0 0 0 0 0 0 0 0 0 0 0 0 0 0 0 0 0 0 0 0 0 -1 -1 -2 -3 -1 0 0 0 0 0 0 0 -1 0 0 -1 0 0 -2 -15 0 -7 -2
-2 -1 -1 0 0 0 0 0 0 0 0 0 0 0 0 0 0 0 0 0 0 0 0 0 0 0 0 0 0 0 0 0 0 0 0 -2 -1 0 0 0 0 0 0 0 -1 0 0 0 0 0 -3 -3 -10 0
0 -2 0 0 0 0 0 0 0 0 0 0 0 0 0 0 0 0 0 0 0 0 0 0 0 0 0 0 0 0 0 0 0 0 0 0 0 0 0 0 0 0 0 -14 -19 -2 -1 0 0 0 -2 -1 0 0
0 0 0 0 0 0 0 -3 0 0 0 0 0 0 0 0 0 0 0 0 0 0 0 0 0 0 0 0 0 0 0 0 0 0 0 0 0 0 0 -4 -7 -5 -1 -1 -2 -2 -2 0 0 -13 -6 -2 -1 -3
0 0 0 0 0 0 0 0 0 0 0 0 0 -1 0 0 0 0 0 0 0 -1 0 0 0 0 0 0 0 0 0 0 0 0 0 0 0 0 0 0 0 -3 -1 0 -1 -3 -6 0 0 0 0 0 -8 -2
0 0 0 0 0 0 0 0 0 0 0 0 0 0 0 0 0 0 0 0 0 0 0 0 0 0 0 0 0 0 0 0 0 0 0 0 0 0 0 0 0 -3 -2 -7 -13 0 0 0 0 0 0 -12 -3 -1
0 0 -2 0 0 0 0 0 0 0 0 0 0 0 0 -1 0 0 0 0 0 0 0 0 0 0 0 0 0 0 0 0 0 0 0 0 0 0 0 0 0 -7 -9 -2 0 0 0 0 0 0 -4 0 -7 0
0 0 0 -2 0 0 -1 -1 -6 0 0 0 -1 -2 -1 0 0 -4 0 0 0 0 0 0 0 0 0 0 0 0 0 0 0 0 0 0 0 0 0 0 0 -4 0 0 0 0 0 0 0 -1 -2 -4 -2 0
-1 0 0 -3 0 0 -2 -1 0 0 0 -1 -1 -1 -1 -4 -1 0 0 0 0 0 0 0 0 0 0 0 0 0 0 0 0 0 0 0 0 0 0 0 -10 -1 0 0 0 0 0 0 -1 -3 0 -1 -1 -1
-1 -1 0 -2 -4 -2 -1 -1 0 0 0 0 -2 0 0 0 -18 0 0 0 -102 -1 0 0 0 0 0 0 0 0 0 0 0 0 0 0 0 0 0 0 0 0 0 0 0 0 0 0 0 0 0 -3 -1 -1
-1 0 -1 -2 -1 0 -4 -4 -8 -12 -8 -3 -3 -2 -2 -18 0 0 0 0 0 0 0 0 0 0 0 0 0 0 0 0 0 0 0 0 0 0 0 0 0 0 0 0 0 0 0 0 0 0 0 0 0 0
0 -2 -1 0 -1 -6 -21 -72 -83 -59 -44 -53 -48 -27 0 0 0 0 0 0 0 0 0 0 0 0 0 0 0 0 0 0 0 0 0 0 0 0 0 0 0 0 0 0 0 0 0 0 0 0 0 0 0 -1
-5 -1 -1 -1 -5 -2 0 0 0 -24 0 -9 0 0 -53 -13 -15 0 0 0 0 0 0 0 0 0 0 0 0 0 0 0 0 0 0 0 0 0 0 0 0 0 0 0 0 0 0 0 0 0 0 0 0 0
0 -4 -3 -3 -1 0 0 -7 -2 -3 -8 -3 -5 -12 -15 0 0 0 0 0 0 0 0 0 0 0 0 0 0 0 0 0 0 0 0 0 0 0 0 0 0 0 0 0 0 0 0 0 0 0 0 0 0 -1
Wind_Speed
16 13 11 9 8 8 6 6 6 8 9 11 12 14 17 18 19 11 6 7 6 5 11 13 14 16 13 15 10 15 7 18 10 12 10 8 9 12 7 16 12 15 8 8 7 7 11 24 13 11 7 8 11 13
15 13 12 9 9 8 7 5 5 6 7 10 11 14 15 17 19 16 5 5 3 3 6 8 11 13 12 12 9 9 9 12 6 6 8 6 9 7 16 8 13 12 9 6 9 7 3 10 9 10 11 8 14 14
15 13 12 10 9 9 8 6 4 3 5 8 11 13 13 15 16 12 6 6 4 4 2 9 11 10 9 7 5 8 7 10 10 3 3 6 8 10 10 13 9 6 13 12 2 11 11 13 11 14 14 13 11 13
16 14 12 11 10 9 8 6 4 1 4 6 10 12 12 13 15 13 6 7 5 4 1 8 9 11 9 9 11 8 3 10 10 6 5 6 8 10 12 11 14 10 6 7 10 14 6 14 13 12 11 12 17 15
17 14 13 11 10 9 8 6 3 3 2 5 8 11 12 11 12 9 3 6 6 3 4 4 10 10 8 9 12 11 10 9 5 8 8 6 4 7 12 9 14 11 13 9 8 11 7 7 10 12 13 15 15 17
17 15 13 12 10 9 8 6 5 4 0 4 8 10 11 11 9 3 4 6 7 5 2 3 5 9 7 10 7 11 8 6 8 5 7 11 17 5 7 12 14 14 15 11 11 10 11 10 10 10 11 12 14 13
18 16 14 12 10 10 9 7 5 4 1 3 6 9 9 12 4 3 4 5 9 7 2 4 2 5 9 9 7 4 7 4 4 4 7 9 10 7 8 10 11 11 10 9 10 8 9 11 10 12 13 13 14 13
18 17 14 13 11 10 9 8 6 4 1 3 7 8 8 6 2 2 4 5 8 2 3 3 2 4 6 3 3 5 4 4 5 4 5 7 7 4 6 12 11 12 13 13 10 11 11 11 12 11 12 11 14 14
19 17 15 13 12 11 9 9 7 4 1 3 7 8 4 2 2 3 4 7 5 2 3 3 2 2 5 3 3 2 3 2 2 3 5 4 4 4 7 7 8 8 9 8 9 10 11 11 12 12 11 10 12 13
20 17 15 14 12 11 10 9 8 5 1 3 4 3 3 2 2 8 1 4 3 2 3 4 1 3 4 5 3 3 3 1 2 2 2 3 4 3 5 5 5 5 6 8 9 10 10 11 10 11 11 9 8 9
20 18 16 14 13 12 12 11 9 7 2 2 2 0 3 1 3 2 2 2 2 2 4 2 3 2 3 3 3 3 2 3 4 4 4 1 4 6 4 3 3 3 4 6 7 7 7 9 9 8 8 7 8 8
21 19 17 15 14 13 13 13 11 5 3 3 3 3 2 2 0 1 3 2 4 3 5 4 3 2 4 1 2 2 3 3 3 3 2 3 5 8 6 4 2 2 3 5 6 8 8 10 9 8 8 8 7 9
21 20 18 16 15 15 15 14 13 3 6 2 1 1 2 1 3 4 5 4 4 4 5 4 4 1 4 2 1 2 2 3 6 2 3 2 5 5 4 3 2 1 3 4 7 8 8 9 8 10 10 9 7 7
22 20 19 17 16 15 16 14 11 4 3 2 3 3 5 5 6 5 5 5 4 5 7 5 5 2 1 1 0 2 2 3 3 2 4 3 8 4 2 2 3 4 5 6 8 10 10 7 7 7 6 5 3 4
22 20 19 16 17 16 17 15 11 5 2 3 4 5 7 7 3 4 3 3 2 6 5 4 3 3 2 0 2 2 2 4 4 3 2 4 4 3 4 4 4 6 7 7 9 10 10 8 6 8 6 6 4 6
22 16 12 18 18 18 19 13 6 2 3 3 6 5 5 4 4 3 4 5 4 5 4 0 3 1 3 3 5 6 4 5 2 1 2 1 3 3 4 5 5 5 7 7 8 9 10 9 8 10 9 1 5 6
24 6 18 22 20 21 19 4 4 6 5 5 5 6 8 4 5 6 7 7 6 6 5 3 4 5 3 4 5 5 5 4 3 2 1 2 3 4 5 6 5 6 7 8 8 9 9 9 9 10 10 6 4 5
9 10 24 25 19 14 2 3 4 6 8 8 7 5 7 7 6 5 7 8 6 8 8 6 3 9 5 5 6 6 4 3 2 2 3 4 4 5 5 6 7 7 8 8 8 8 9 9 9 6 8 5 2 5
12 14 28 29 12 5 5 5 4 5 9 6 8 7 6 5 8 7 6 7 7 5 6 4 7 7 10 8 8 6 5 5 3 4 5 6 7 6 6 7 7 8 9 9 7 5 6 8 8 5 5 5 4 4
16 25 29 27 17 4 5 4 4 6 5 6 7 8 9 8 7 7 8 8 7 6 7 8 9 8 6 7 7 7 6 5 4 4 5 5 7 8 8 7 7 8 7 8 6 1 4 3 4 2 2 4 3 4
15 15 27 16 5 4 3 4 7 5 5 5 6 8 7 6 8 7 7 8 8 9 9 9 8 8 9 9 8 7 7 7 7 7 7 6 6 7 7 6 7 6 5 5 4 2 3 3 4 3 2 2 2 2
6 18 4 3 3 6 5 6 5 6 5 3 7 8 6 7 6 7 6 10 11 11 9 10 10 9 10 13 11 12 11 11 9 7 7 7 7 6 6 5 5 5 5 5 4 2 3 3 3 2 3 2 1 2
16 5 4 4 5 9 5 9 8 5 8 7 6 7 6 5 4 6 6 8 9 10 9 12 14 15 15 15 14 13 12 12 9 9 8 7 8 7 6 5 5 5 5 5 4 3 3 2 4 2 4 2 3 2
10 6 7 9 9 7 7 8 7 7 8 10 8 5 7 6 4 6 10 10 8 9 12 17 12 11 12 15 13 12 11 9 9 8 8 7 7 7 7 7 6 7 7 6 4 4 4 4 5 4 5 4 2 1
9 9 7 11 9 10 8 10 10 8 6 12 18 10 5 6 6 8 9 3 8 10 11 12 11 12 12 11 10 9 9 8 9 9 7 7 7 6 7 7 7 6 6 5 4 5 5 5 5 6 6 5 5 5
10 10 12 14 11 10 10 11 13 9 8 15 12 9 8 5 7 8 6 9 11 9 10 10 11 11 11 11 10 8 7 7 7 8 7 5 7 7 8 8 7 6 5 5 6 9 8 9 7 7 6 7 6 5
11 12 8 7 8 11 7 11 10 13 12 11 11 8 9 11 10 5 3 8 9 8 8 9 10 11 10 8 7 6 5 7 9 8 4 3 4 7 8 8 10 5 6 6 6 10 11 10 8 8 7 6 6 6
9 10 16 17 12 11 13 13 14 15 12 7 10 14 10 10 7 5 5 3 7 7 7 7 8 8 8 6 4 4 4 3 4 4 3 2 3 4 5 5 5 8 6 7 8 9 9 9 9 9 9 8 7 7
8 10 11 14 16 11 13 15 14 10 9 11 17 18 10 9 2 3 3 3 2 4 4 4 2 2 2 3 2 4 5 7 8 8 9 6 4 6 4 5 4 4 6 8 11 11 11 10 12 11 10 8 7 6
11 10 11 14 15 17 13 9 10 11 9 9 10 11 11 6 5 3 4 3 5 6 6 6 5 5 7 7 6 6 3 5 7 9 9 10 10 5 7 7 6 7 7 8 9 7 7 7 7 8 8 7 7 9
7 10 8 10 13 14 4 5 3 5 9 8 8 12 14 9 3 4 7 5 4 4 5 6 7 8 8 10 10 9 8 8 12 15 11 3 5 8 9 9 8 7 8 9 10 10 11 10 12 13 12 13 13 13
9 12 12 13 8 4 7 6 6 8 8 8 12 8 5 5 15 11 7 6 6 7 11 9 9 10 13 10 8 7 6 5 11 14 19 12 10 9 8 8 9 9 11 12 12 11 16 17 13 14 13 15 15 15
4 6 6 7 5 8 5 8 7 9 7 8 10 11 13 15 20 8 6 10 12 13 13 12 12 12 13 12 12 10 11 8 11 13 14 16 15 12 9 8 9 12 15 14 14 14 18 19 16 17 16 15 16 15
Wind_Direction
168 164 159 152 158 143 125 97 70 51 31 27 17 19 17 1 7 355 74 30 354 352 49 30 23 19 9 7 4 333 354 11 5 20 20 17 21 18 44 30 12 19 37 23 35 40 22 344 359 46 325 320 352 7
166 166 158 162 159 152 143 126 89 59 26 23 13 20 14 1 1 338 41 29 323 311 53 45 53 42 17 30 352 10 32 8 13 2 16 25 29 26 23 38 11 46 45 56 35 55 8 357 16 5 7 9 18 16
164 166 158 168 162 158 153 143 109 67 30 17 13 14 7 359 358 350 11 2 357 305 46 40 27 39 25 29 35 3 7 3 6 125 331 22 60 26 34 23 35 69 30 45 63 53 34 22 21 24 21 24 31 29
167 165 163 171 167 162 150 153 139 126 38 9 14 6 355 355 346 332 38 19 9 322 304 64 45 48 32 19 23 52 226 43 19 32 41 45 48 46 58 47 44 29 42 60 60 26 49 32 21 21 22 21 25 23
166 166 164 170 171 169 156 158 155 149 33 6 7 354 343 347 340 309 28 42 12 347 341 8 45 43 43 23 38 34 35 43 45 45 38 43 114 73 54 55 52 40 45 39 50 45 45 41 35 27 34 35 37 27
166 165 164 171 170 171 166 164 174 144 84 17 359 341 338 339 337 36 32 79 7 341 311 341 102 34 21 52 30 46 56 16 43 27 63 47 33 77 70 67 64 57 63 74 73 74 57 47 51 64 46 35 42 36
167 167 169 170 167 170 170 172 171 156 122 22 339 331 331 343 340 49 24 354 329 302 299 307 68 66 342 74 18 43 51 31 43 21 70 76 74 71 72 76 91 90 82 77 74 64 61 66 47 43 28 38 33 46
168 169 171 171 168 171 170 172 170 170 143 10 328 313 309 322 127 164 81 345 329 323 263 309 0 51 359 32 40 10 37 37 11 52 86 76 59 42 61 59 47 63 68 55 54 57 53 53 71 61 42 29 34 28
169 170 172 172 170 168 168 169 173 169 118 341 311 296 284 342 28 54 320 294 257 301 297 264 333 62 327 348 74 36 347 36 74 28 38 69 64 55 65 66 63 51 44 59 57 30 38 41 33 35 40 29 35 28
170 170 173 172 170 166 167 169 166 160 153 309 325 41 11 258 330 271 27 2 7 296 236 271 271 92 342 323 44 14 330 274 220 82 163 180 123 94 105 96 80 34 24 18 30 29 26 24 32 14 24 19 28 41
170 170 173 172 171 167 166 168 163 165 186 37 50 165 67 180 235 353 325 293 216 235 206 223 25 2 88 356 346 22 304 314 300 90 341 262 145 177 172 113 89 47 19 12 2 15 18 4 7 14 6 18 10 19
172 172 174 172 172 168 167 168 169 203 165 172 276 208 53 285 172 314 247 232 229 218 173 194 139 19 98 285 298 26 311 321 299 349 323 283 124 156 185 177 251 350 340 339 342 357 0 339 356 342 351 355 17 354
173 173 174 173 172 171 170 170 189 111 172 65 352 213 205 161 229 217 186 211 222 170 155 156 140 244 154 184 303 277 319 267 329 351 259 354 131 175 212 176 226 283 296 317 328 336 330 337 334 340 339 332 356 342
172 172 172 173 171 171 170 171 181 206 261 203 198 210 215 185 242 212 238 197 181 170 158 169 112 180 124 215 59 249 304 315 278 250 250 238 161 166 167 113 300 291 308 306 323 326 328 343 325 302 272 295 251 295
170 171 170 171 170 170 167 166 184 203 263 239 225 236 215 237 265 278 309 51 166 145 150 121 114 171 166 115 247 258 242 259 236 240 309 54 101 157 193 227 249 295 314 316 322 320 317 314 325 314 305 229 94 86
163 151 185 170 169 166 161 158 178 240 253 240 237 244 251 271 226 207 241 230 193 162 171 108 110 150 212 229 196 205 229 230 230 163 68 353 205 212 234 249 262 294 310 311 306 311 317 324 324 319 305 43 123 131
162 185 164 163 163 155 140 124 185 206 228 233 232 237 270 257 213 219 234 232 163 195 185 171 197 206 197 218 221 213 218 287 22 88 221 205 248 256 253 263 286 293 300 303 304 307 317 317 309 296 298 103 152 171
177 164 155 156 154 129 33 207 218 213 223 231 247 231 226 244 247 229 209 232 176 211 213 213 230 205 206 224 222 235 224 228 302 281 276 252 231 245 264 276 283 292 298 305 307 303 306 305 308 322 355 351 30 50
171 161 158 153 144 116 152 198 229 228 212 232 221 244 243 223 229 243 229 216 216 205 224 234 231 233 231 243 262 278 294 304 251 219 228 260 267 259 263 271 281 282 282 284 288 304 306 327 321 335 12 28 19 34
157 156 157 153 154 140 187 196 221 238 217 206 225 237 233 233 230 221 224 233 218 213 219 223 228 240 252 258 272 285 280 268 268 234 233 248 266 265 253 243 248 258 273 284 288 291 268 302 312 318 39 35 2 26
146 157 151 156 179 209 237 179 198 215 205 202 207 224 243 232 217 233 227 212 222 216 219 227 243 246 255 269 274 272 273 271 265 272 273 253 239 260 263 264 258 244 261 276 264 264 237 291 287 235 193 123 137 65
131 132 98 117 168 183 229 216 242 176 187 193 190 208 236 224 225 225 235 230 228 229 223 229 237 245 249 247 249 251 254 259 260 264 268 270 265 258 260 266 279 280 265 260 258 237 262 284 312 242 122 136 154 73
124 117 126 139 184 202 222 184 199 198 192 181 181 196 211 214 205 190 233 224 233 228 231 235 240 244 251 258 264 262 255 246 247 246 248 242 248 252 257 241 216 226 247 257 248 198 193 163 148 185 115 149 75 71
118 147 164 182 207 193 172 190 199 188 213 199 192 213 206 194 199 216 245 229 219 208 221 230 233 242 246 246 244 244 242 239 245 244 244 243 247 245 240 250 236 225 221 223 211 201 156 157 144 138 124 120 118 220
148 171 193 202 187 182 179 173 181 190 189 195 208 209 182 203 221 231 238 210 209 222 221 217 225 226 235 242 246 246 228 221 231 238 231 225 229 235 242 240 241 221 207 184 180 145 155 139 156 147 157 160 189 209
193 185 201 188 175 188 176 180 186 180 180 196 213 205 207 200 232 235 225 224 228 219 216 215 222 226 231 232 240 236 224 216 223 235 235 219 212 216 225 231 234 214 190 178 165 163 167 165 179 174 172 186 191 220
195 192 190 207 170 181 184 186 174 190 199 194 191 181 193 226 232 226 211 213 226 219 210 207 215 223 235 235 228 217 210 214 217 229 206 211 207 214 218 221 230 228 172 175 151 169 174 170 169 182 185 185 201 188
196 198 192 178 191 179 191 175 184 194 197 168 170 197 200 207 213 189 213 243 210 212 204 200 204 217 228 228 198 165 167 125 105 88 60 346 265 224 212 222 235 177 167 158 152 171 170 166 178 187 186 185 193 196
211 188 169 192 195 191 199 199 198 189 177 186 193 205 213 214 156 151 205 178 158 174 197 201 232 26 119 100 163 161 151 160 164 177 208 217 219 245 230 210 157 166 136 152 163 168 166 172 192 191 187 184 191 180
198 179 186 179 196 210 205 192 200 197 195 201 213 224 230 217 200 161 142 161 184 199 193 201 208 191 201 188 199 218 205 192 200 192 199 212 219 184 183 186 166 168 157 157 160 160 143 165 166 178 171 169 175 192
176 181 189 195 213 214 173 160 125 167 199 205 210 219 225 223 232 223 198 184 171 137 154 208 215 208 204 203 203 198 220 213 220 226 230 224 200 192 188 188 177 169 166 174 174 176 181 183 189 189 182 188 198 199
181 187 193 195 195 121 139 170 185 202 190 205 219 212 187 201 229 220 192 170 173 192 215 215 214 224 216 222 209 207 202 167 189 210 217 215 214 205 191 187 174 178 185 191 190 182 191 191 193 195 193 195 204 201
165 190 183 193 144 164 174 179 202 222 202 215 220 211 214 221 232 218 197 189 201 211 219 223 228 233 228 207 206 210 211 213 214 213 207 201 200 191 184 182 176 181 190 195 194 191 193 194 197 200 199 198 203 204